Location: Mapua
(41.2500°S, 173.1000°E)
Time: 04:14:56
(UTC+12:00)

ISS - Pass Details

Date: 25 March 2019
Orbit: 408 x 410 km, 51.6° (Epoch: 22 April)

Event Time Altitude Azimuth Distance (km) Brightness Sun altitude
Rises 06:35:58 0° 359° (N) 2,337 -0.1 -11.9°
Reaches altitude 10° 06:40:05 10° 49° (NE) 1,491 -0.3 -11.1°
Maximum altitude 06:40:15 10° 52° (NE) 1,490 -0.3 -11.1°
Drops below altitude 10° 06:40:24 10° 55° (NE) 1,492 -0.2 -11.0°
Sets 06:44:34 0° 105° (ESE) 2,371 2.2 -10.3°
